Flag for Canada Weather past 2 weeks in Kuujjuaq, Quebec, Canada

Now
-11 °F

Passing clouds.


Feels Like: -32 °F
Forecast: -9 / 5 °F
Wind: 13 mph from South

Location: Kuujjuaq

Current Time: Jan 27, 2015 at 11:45:54 PM

Latest Report: Jan 27, 2015 at 11:00 PM


Visibility: 15 mi

Pressure: 30.16 "Hg

Humidity: 70%

Dew point: -18 °F

Location of KuujjuaqLocation

Historic Weather in Kuujjuaq — Graph

°F

Kuujjuaq temperature yesterday

Maximum temperature yesterday: -13 °F (at 12:00 AM)
Minimum temperature yesterday: -29 °F (at 5:00 PM)
Average temperature yesterday: -22 °F

Past Weeks' High & Low Weather Summary

 TemperatureHumidityPressure
High0 °F (Jan 25, 1:00 AM)84% (Jan 24, 10:00 PM)30.47 "Hg (Jan 24, 10:00 PM)
Low-31 °F (Jan 19, 8:00 PM)51% (Jan 26, 12:00 PM)29.46 "Hg (Jan 25, 1:00 PM)
Average-17 °F68%29.94 "Hg
* Reported Jan 12 11:00 PM — Jan 27 11:00 PM, Kuujjuaq, Weather by CustomWeather, © 2014

Note: Actual official high and low records may vary slightly from our data, if they occured in-between our weather recording intervals... More about our weather records

Advertising

Kuujjuaq weather history for previous 24 hours

 ConditionsComfort  
Time TempWeatherWind HumidityBarometerVisibility
11:00 PM
Jan 27
-11 °FPassing clouds.13 mph70%30.16 "Hg15 mi
10:00 PM-13 °FClear.16 mph69%30.18 "Hg15 mi
9:00 PM-13 °FPassing clouds.8 mph69%30.21 "Hg15 mi
8:00 PM-11 °FPassing clouds.10 mph63%30.25 "Hg15 mi
7:00 PM-13 °FClear.8 mph69%30.28 "Hg15 mi
6:00 PM-11 °FClear.10 mph63%30.31 "Hg15 mi
5:00 PM-11 °FPassing clouds.12 mph63%30.33 "Hg15 mi
4:00 PM-11 °FPassing clouds.10 mph63%30.33 "Hg15 mi
3:00 PM-11 °FPassing clouds.8 mph63%30.35 "Hg15 mi
2:00 PM-11 °FPassing clouds.12 mph63%30.35 "Hg15 mi
1:00 PM-11 °FPassing clouds.15 mph58%30.35 "Hg15 mi
12:00 PM-13 °FPassing clouds.10 mph57%30.35 "Hg15 mi
11:00 AM-17 °FPassing clouds.16 mph63%30.37 "Hg15 mi
10:00 AM-18 °FPassing clouds.14 mph62%30.39 "Hg15 mi
9:00 AM-24 °FPassing clouds.9 mph68%30.40 "Hg15 mi
8:00 AM-24 °FPassing clouds.12 mph61%30.38 "Hg15 mi
7:00 AM-24 °FClear.9 mph68%30.37 "Hg15 mi
6:00 AM-26 °FClear.5 mph67%30.35 "Hg15 mi
5:00 AM-26 °FClear.8 mph67%30.34 "Hg15 mi
4:00 AM-26 °FClear.7 mph67%30.32 "Hg15 mi
3:00 AM-26 °FClear.10 mph67%30.30 "Hg15 mi
2:00 AM-26 °FClear.8 mph67%30.28 "Hg15 mi
1:00 AM-26 °FPassing clouds.10 mph67%30.26 "Hg15 mi
12:00 AM-26 °FPassing clouds.8 mph67%30.23 "Hg15 mi
11:00 PM
Jan 26
-24 °FPassing clouds.14 mph61%30.20 "Hg15 mi
Weather by CustomWeather, © 2014

See weather overviewHow to use our weather pages